Ana Sayfa
METAR-TAF:

METAR-TAF

Havaalanları :

Llano Municipal Airport

Llano, Teksas, Amerika Birleşik Devletleri

Enlem: 30-47-01N, Boylam: 098-39-43W, yükseklik: 336 m

Güncel hava durumu gözlemi

Rapor saat 21:30 UTC de 29 dakika önce yapıldı.
Rüzgar batı/kuzeybatıdan 7 kt
Sıcaklık 21°C
Nem 28%
Basınç 1011 hPa
Görüş mesafesi: 16.1 km
11000 ft yükseklikte az bulutlu

METAR: KAQO 242130Z AUTO 29007KT 10SM FEW110 21/02 A2984 RMK AO2 PWINO

Saat: 15:59 (21:59 UTC)


TAF: eksik

4.000'den fazla havaalanı için hava durumu gözlemleri ve tahminleri (METAR ve TAF raporları).

Kullanılabilir istasyonlar harita üzerinde sarı ve kırmızı noktalarla gösterilir.

İstasyonun adını görmek için fareyi noktanın üzerinde gezdirin.

Sonrasında hava gözlem ve tahminlerini görmek için tıklayın.

Haritayı değiştirmek için: yaklaştırmak için siyah artı işaretli yeşil düğmeye ve uzaklaştırmak için de eksi işaretli düğmeye hızla tıklayın; bitişik haritalar için yeşil okları kullanın.


METAR-TAF: